Regional Weather Roundup
Issued by NWS

Home | Current Version | Previous Version | Graphics & Text | Print | Product List | Glossary On
Versions: 1 2 3 4 5 6 7 8 9 10 11 12 13 14 15 16 17 18 19 20 21 22 23 24 25 26 27 28 29 30 31 32 33 34 35 36 37 38 39 40 41 42 43 44 45 46 47 48 49 50
000
ASUS43 KMKX 111200
RWRWI

WISCONSIN REGIONAL WEATHER ROUNDUP
NATIONAL WEATHER SERVICE MILWAUKEE/SULLIVAN WI
700 AM CDT FRI JUL 11 2014

NOTE: "FAIR" INDICATES FEW OR NO CLOUDS BELOW 12,000 FEET WITH NO
SIGNIFICANT WEATHER AND/OR OBSTRUCTIONS TO VISIBILITY.

WIZ001-002-006>008-014>016-023>028-111300-
NORTHWEST WISCONSIN

CITY           SKY/WX    TMP DP  RH WIND       PRES   REMARKS
SUPERIOR ARPT  DRIZZLE   60  59  97 SW12G20   29.93F
ASHLAND        LGT RAIN  65  62  90 S9        30.01F
6HR MIN TEMP:  65; 6HR MAX TEMP:  69; 6HR PCP:  0.14;

HAYWARD        LGT RAIN  65  62  90 S12G18    30.03F
6HR MIN TEMP:  64; 6HR MAX TEMP:  71; 6HR PCP:  0.13;

SIREN          HVY RAIN  64  62  91 S9        30.00S
RICE LAKE      CLOUDY    65  60  85 SE9       30.05F
LADYSMITH      RAIN      65  60  84 SW3       30.12R
EAU CLAIRE     LGT RAIN  67  60  78 S10       30.05F
6HR MIN TEMP:  66; 6HR MAX TEMP:  70; 6HR PCP:  0.03;

MENOMONIE      CLOUDY    67  59  75 SE10      30.04F
NEW RICHMOND   CLOUDY    68  58  70 S17       29.98F
OSCEOLA        CLOUDY    69  60  73 SE13      29.99F
$$

WIZ003>005-009-010-017-018-111300-
NORTH CENTRAL WISCONSIN

CITY           SKY/WX    TMP DP  RH WIND       PRES   REMARKS
WOODRUFF       CLOUDY    64  60  85 SW6       30.12R
RHINELANDER    CLOUDY    64  58  80 SW9       30.14R
6HR MIN TEMP:  61; 6HR MAX TEMP:  65;

EAGLE RIVER    CLOUDY    61  60  96 CALM      30.13R
LAND O LAKES   CLOUDY    62  60  94 SW3       30.13R
PHILLIPS       CLOUDY    64  59  85 S7        30.10R
TOMAHAWK       PTSUNNY   62  59  91 CALM      30.13R
MEDFORD        CLOUDY    62  58  88 S8        30.12S
MERRILL        PTSUNNY   64  60  86 SW6       30.13R
$$

WIZ029-030-035-036-043>047-111300-
CENTRAL WISCONSIN

CITY           SKY/WX    TMP DP  RH WIND       PRES   REMARKS
WAUSAU         MOSUNNY   66  60  81 SW5       30.13R
6HR MIN TEMP:  63; 6HR MAX TEMP:  68;

MOSINEE        SUNNY     64  63  94 S8        30.15R
MARSHFIELD     PTSUNNY   63  60  90 S7        30.13R
6HR MIN TEMP:  59; 6HR MAX TEMP:  66;

STEVENS POINT  MOSUNNY   63  58  85 S8        30.15R
WAUPACA        MOSUNNY   63  60  90 S5        30.15R
WAUTOMA        NOT AVBL
WISC RAPIDS    MOSUNNY   65  60  84 S6        30.15R
6HR MIN TEMP:  63; 6HR MAX TEMP:  68;

CAMP DOUGLAS   NOT AVBL
$$

WIZ011>013-019>022-031-037>040-048>050-111300-
NORTHEAST WISCONSIN

CITY           SKY/WX    TMP DP  RH WIND       PRES   REMARKS
ANTIGO         MOSUNNY   59  58  98 S5        30.16R
STURGEON BAY   PTSUNNY   63  48  59 S8        30.16R
6HR MIN TEMP:  61; 6HR MAX TEMP:  64;

GREEN BAY      MOSUNNY   63  55  75 S8        30.16R
6HR MIN TEMP:  61; 6HR MAX TEMP:  63;

MANITOWOC      NOT AVBL
APPLETON       MOSUNNY   64  55  72 SW6       30.16R
CLINTONVILLE   SUNNY     61  57  88 CALM      30.14R
OSHKOSH        PTSUNNY   64  56  75 S12       30.16R
6HR MIN TEMP:  61; 6HR MAX TEMP:  64;

$$

WIZ032>034-041-042-053>061-111300-
SOUTHWEST WISCONSIN

CITY           SKY/WX    TMP DP  RH WIND       PRES   REMARKS
LA CROSSE      CLOUDY    70  58  65 S7        30.10R
6HR MIN TEMP:  68; 6HR MAX TEMP:  72; 6HR PCP: TRACE;

SPARTA         PTSUNNY   66  57  74 S5        30.13R
VIROQUA        FAIR      64  59  82 S8        30.15R
BOSCOBEL       CLOUDY    67  61  81 NW3       30.15R
6HR MIN TEMP:  61; 6HR MAX TEMP:  68;

PRAIRIE DU CHI CLOUDY    67  57  72 S6        30.14R
PLATTEVILLE    FAIR      63  59  88 SE8       30.17R
$$

WIZ056-057-062-063-064-067-068-111300-
SOUTH CENTRAL WISCONSIN

CITY           SKY/WX    TMP DP  RH WIND       PRES   REMARKS
BARABOO/DELLS  MOSUNNY   65  57  74 S6        30.15R
LONE ROCK      NOT AVBL
WATERTOWN      MOSUNNY   61  53  76 S3        30.17S
MADISON        MOSUNNY   65  57  75 S5        30.18R
6HR MIN TEMP:  63; 6HR MAX TEMP:  69;

MIDDLETON      FAIR      65  56  73 S5        30.17S
MONROE         MOSUNNY   61  57  88 S5        30.19R
JANESVILLE     SUNNY     63  54  72 CALM      30.18S
$$

WIZ051-052-058>065-066-070>072-111300-
SOUTHEAST WISCONSIN

CITY           SKY/WX    TMP DP  RH WIND       PRES   REMARKS
MILWAUKEE      MOSUNNY   64  52  64 S6        30.20R
6HR MIN TEMP:  59; 6HR MAX TEMP:  64;

WAUKESHA       SUNNY     61  50  67 S3        30.20R
MILWAUKEE/TIMM SUNNY     64  48  55 CALM      30.20R
RACINE         SUNNY     65  57  75 SW6       30.22R
6HR MIN TEMP:  59; 6HR MAX TEMP:  65;

BURLINGTON     SUNNY     54  53  98 CALM      30.19S
KENOSHA        SUNNY     61  56  83 CALM      30.21R
6HR MIN TEMP:  54; 6HR MAX TEMP:  62;

FOND DU LAC    PTSUNNY   64  54  69 S7        30.17R
6HR MIN TEMP:  58; 6HR MAX TEMP:  64;

SHEBOYGAN      MOSUNNY   62  54  74 SW6       30.18R
6HR MIN TEMP:  56; 6HR MAX TEMP:  62;

WEST BEND      MOSUNNY   61  50  67 CALM      30.18S
JUNEAU         MOSUNNY   62  39  42 S7        30.19R
$$

LSZ147-162-111300-
LAKE SUPERIOR

STATION/POSITION TIME  TEMP    WIND        PRES    WAVE
                       AIR SEA DIR/SP/G            HT/PER
                 (UTC) (F)     (DEG/KT/KT) (MB)    (FT/S)
W MID LAKE BUOY  1050   48 38  210/ 12/ 12 1015.9R   1/ 2
PORT WING        1100   66     170/ 11/ 15 1014.9F
SAXON HARBOR     1100          200/  9/ 15 1016.6R
$$

LMZ867-665-643>646-111300-
LAKE MICHIGAN

STATION/POSITION TIME  TEMP    WIND        PRES    WAVE
                       AIR SEA DIR/SP/G            HT/PER
                 (UTC) (F)     (DEG/KT/KT) (MB)    (FT/S)
N MID LAKE BUOY  1050   58 54  190/ 14/ 16 1020.3F   1/ 3
NORTHPORT PIER   1100   63     160/  6/ 12 1020.3S
KEWAUNEE LAKESHO 1100   51     180/  6/  7 1021.6S
SHEBOYGAN LAKESH 1100   62     200/  8/  8 1021.7R
PORT WASHINGTON  1100   60      CALM  /  2 1022.4S
MILWAUKEE LAKESH 1100   62     110/  3/  4   N/A
S MID LAKE BUOY  1050   61 58  150/  4/  4 1022.5R   0
KENOSHA   LAKESH 1100   63     200/  5/  6   N/A
$$

TC  - TEMPERATURE IN CELSIUS
VSB - VISIBILITY IN STATUTE MILES
WCI - WIND CHILL INDEX
HX  - HEAT INDEX




USA.gov is the U.S. government's official web portal to all federal, state and local government web resources and services.